This is the latest recevied weather packets stored in our database for station/object BM1CCR-13. If no packets are shown the sender has not sent any weather packets the latest 10 day(s).
| Time | Temp. | Humidity | Pressure | Rain* | Wind** | Luminosity | Snow |
|---|---|---|---|---|---|---|---|
| 1777894203 | 17.78° C | 84% | 1008.6 hPa | 0 mm | - | - | - |
| 1777893903 | 17.78° C | 84% | 1008.6 hPa | 0 mm | - | - | - |
| 1777893616 | 17.78° C | 83% | 1008.8 hPa | 0 mm | - | - | - |
| 1777893604 | 17.78° C | 83% | 1008.7 hPa | 0 mm | - | - | - |
| 1777893316 | 17.78° C | 83% | 1008.6 hPa | 0 mm | - | - | - |
| 1777893304 | 18.89° C | 83% | 1008.7 hPa | 0 mm | - | - | - |
| 1777893003 | 18.89° C | 83% | 1008.4 hPa | 0 mm | - | - | - |
| 1777892704 | 18.89° C | 82% | 1008.3 hPa | 0 mm | - | - | - |
| 1777892416 | 18.89° C | 81% | 1008.2 hPa | 0 mm | - | - | - |
| 1777892403 | 18.89° C | 81% | 1008.3 hPa | 0 mm | - | - | - |
| 1777892117 | 18.89° C | 78% | 1008.3 hPa | 0 mm | - | - | - |
| 1777892103 | 18.89° C | 77% | 1008.2 hPa | 0 mm | - | - | - |
| 1777891804 | 18.89° C | 74% | 1008.2 hPa | 0 mm | - | - | - |
| 1777891515 | 18.89° C | 71% | 1008.1 hPa | 0 mm | - | - | - |
| 1777891504 | 18.89° C | 71% | 1008 hPa | 0 mm | - | - | - |
| 1777891203 | 20° C | 69% | 1008 hPa | 0 mm | - | - | - |
| 1777890904 | 20° C | 68% | 1007.9 hPa | 0 mm | - | - | - |
| 1777890604 | 18.89° C | 70% | 1007.9 hPa | 0 mm | - | - | - |
| 1777890315 | 20° C | 68% | 1007.7 hPa | 0 mm | - | - | - |
| 1777890304 | 20° C | 68% | 1007.8 hPa | 0 mm | - | - | - |
| 1777890014 | 20° C | 68% | 1007.6 hPa | 0 mm | - | - | - |
| 1777890004 | 20° C | 68% | 1007.7 hPa | 0 mm | - | - | - |
| 1777889714 | 20° C | 66% | 1007.5 hPa | 0 mm | - | - | - |
| 1777889704 | 20° C | 66% | 1007.4 hPa | 0 mm | - | - | - |
| 1777889403 | 20° C | 67% | 1007.6 hPa | 0 mm | - | - | - |
* Rain latest hour (hover to see other rain measurements)
** Current wind speed in m/s (hover to see current wind gust speed)